Погода в Монтеверде

Коста-Рика     10°18′02″N   84°47′58″W
темп.,
°C
ветер,
м/с
пор.,
м/с
влажн.,
%
обл.,
%
осадки,
мм/ч
давл.,
гПа
погр.,
м
19 апреля, пн
пн1900:00+21св1190100 0.4 101312
03:00+20с119399 0.0 101214
06:00+20св2290100 0.0 101365
09:00+25в0163100 0.1 1014904
12:00+27зюз2160100 0.7 10121182
15:00+24юз1179100 10.4 1010299
18:00+20с0197100 29.9 101273
21:00+21ю1195100 10.9 101454
20 апреля, вт
вт2000:00+20всв119491 13.6 101351
03:00+20ссв129596 0.3 101240
06:00+20св229472 0.3 101471
09:00+24всв127194 0.1 1015905
12:00+26с0264100 2.3 10121110
15:00+22св1291100 11.1 1011196
18:00+20з1296100 17.8 101399
21:00+20вюв2396100 1.9 1015105
21 апреля, ср
ср2100:00+20св1296100 3.1 101497
03:00+19св2396100 0.0 1013121
06:00+19св349573 0.1 1014165
09:00+23св358076 0.1 1014597
12:00+27св346181 0.2 10131333
15:00+25св336816 0.8 10111031
18:00+21св249147 1.4 1013205
21:00+19св359293 0.1 1015234
22 апреля, чт
чт2200:00+19св3494100 0.2 1014175
03:00+19св3493100 0.1 1013183
06:00+19св359387 0.3 1013351
09:00+22св358348 0.2 1015574
12:00+25св346837 0.5 10131095
15:00+23св347952 1.0 1011726
18:00+20св358938 1.4 1013314
21:00+19св359234 0.3 1015266
23 апреля, пт
пт2300:00+19св349443 0.3 1014176
03:00+19св359470 0.2 1012272
06:00+19св359477 0.4 1014397
09:00+20св469077 0.2 1015374
12:00+25св445899 0.3 10131166
15:00+24св346852 0.1 1011921
18:00+20св35858 0.2 1012274
21:00+19св359114 0.1 1014208